This is the latest recevied weather packets stored in our database for station/object M0JUI-1. If no packets are shown the sender has not sent any weather packets the latest 10 day(s).
| Time | Temp. | Humidity | Pressure | Rain* | Wind** | Luminosity | Snow |
|---|---|---|---|---|---|---|---|
| 1788279285 | 19.44° C | 99% | 1018.8 hPa | 0 mm | - | 121 W/m² | - |
| 1788278985 | 19.44° C | 99% | 1018.7 hPa | 0 mm | - | 96 W/m² | - |
| 1788278685 | 19.44° C | 99% | 1018.8 hPa | 0 mm | - | 104 W/m² | - |
| 1788278385 | 19.44° C | 99% | 1018.9 hPa | 0 mm | - | 111 W/m² | - |
| 1788278085 | 19.44° C | 99% | 1018.8 hPa | 0 mm | - | 124 W/m² | - |
| 1788277785 | 19.44° C | 99% | 1018.6 hPa | 0 mm | - | 127 W/m² | - |
| 1788277485 | 19.44° C | 99% | 1018.6 hPa | 0 mm | - | 120 W/m² | - |
| 1788277185 | 19.44° C | 99% | 1018.7 hPa | 0 mm | - | 97 W/m² | - |
| 1788276885 | 19.44° C | 99% | 1018.7 hPa | 0 mm | - | 113 W/m² | - |
| 1788276585 | 19.44° C | 99% | 1018.8 hPa | 0 mm | - | 187 W/m² | - |
| 1788276286 | 19.44° C | 1% | 1018.9 hPa | 0 mm | - | 232 W/m² | - |
| 1788275985 | 18.89° C | 99% | 1019.1 hPa | 0 mm | - | 146 W/m² | - |
| 1788275685 | 19.44° C | 99% | 1018.8 hPa | 0 mm | - | 116 W/m² | - |
| 1788275385 | 19.44° C | 99% | 1018.8 hPa | 0 mm | - | 124 W/m² | - |
| 1788275086 | 19.44° C | 1% | 1018.9 hPa | 0 mm | - | 281 W/m² | - |
| 1788274786 | 19.44° C | 1% | 1018.8 hPa | 0 mm | - | 204 W/m² | - |
| 1788274485 | 19.44° C | 1% | 1018.8 hPa | 0 mm | - | 206 W/m² | - |
| 1788274186 | 18.89° C | 1% | 1018.9 hPa | 0 mm | - | 217 W/m² | - |
| 1788273886 | 18.89° C | 1% | 1019 hPa | 0 mm | - | 115 W/m² | - |
| 1788273585 | 18.89° C | 1% | 1019.2 hPa | 0 mm | - | 97 W/m² | - |
| 1788273285 | 18.89° C | 1% | 1019.1 hPa | 0 mm | - | 88 W/m² | - |
| 1788272985 | 18.89° C | 1% | 1019.1 hPa | 0 mm | - | 83 W/m² | - |
| 1788272686 | 18.89° C | 1% | 1019 hPa | 0 mm | - | 101 W/m² | - |
| 1788272385 | 18.89° C | 1% | 1018.9 hPa | 0 mm | - | 134 W/m² | - |
| 1788272086 | 18.89° C | 1% | 1018.9 hPa | 0 mm | - | 128 W/m² | - |
* Rain latest hour (hover to see other rain measurements)
** Current wind speed in m/s (hover to see current wind gust speed)